NORTHERN QUEENS  -  Air Quality Alert Air Quality Alert        SOUTHERN QUEENS  -  Air Quality Alert Air Quality Alert      

Active alerts

Northern Queens
  Details for Northern Queens Air Quality Alert
Southern Queens
  Details for Southern Queens Air Quality Alert


WXM80 ListenWXM80 Stop

You find our weather info also at:

UK Metoffice

WeatherCloud

Weather Underground

Northeastern Weather Network

AWEKAS

Citizen Weather Observer Program (CWOP)

HAMweather, WeatherForYou, PWS Weather


Weather Underground History page Text

Daily Summary for September 22, 2017 Units:  Metric    English   Both
« Previous Day
Next Day »
Daily Weekly Monthly Yearly Custom
  High: Low: Average:
Temperature: 29.2 °C 18.7 °C 22.7 °C
Dew Point: 20.1 °C 11.8 °C 15.8 °C
Humidity: 77 % 51 % 65 %
Wind Speed: 14.6 km/h 0 km/h 8.2 km/h
Wind Gust: 24.1 km/h - -
Wind:- - East
Pressure: 1014.1 hPa 1010.7 hPa -
Precipitation: 0 mm    
Historical Graphs
 
 
Tabular Data for September 22, 2017
Time Temperature Dew Point Pressure Wind Wind Speed Wind Gust Humidity Rainfall Rate (Hourly)
00:04 21.2 °C 14.1 °C 1013.8 hPa North 7.9 km/h 18.5 km/h 64 % 0 mm
00:09 21.2 °C 14.1 °C 1013.8 hPa NNE 9.7 km/h 13 km/h 64 % 0 mm
00:14 21.1 °C 14.1 °C 1013.8 hPa North 10.1 km/h 18.5 km/h 64 % 0 mm
00:15 21.1 °C 14.1 °C 1013.8 hPa NNE 9.2 km/h 19.3 km/h 64 % 0 mm
00:20 21.1 °C 14.1 °C 1013.8 hPa North 10.1 km/h 16.7 km/h 64 % 0 mm
00:25 21.1 °C 13.7 °C 1013.8 hPa NNE 10.1 km/h 13 km/h 63 % 0 mm
00:31 21.1 °C 14 °C 1013.8 hPa NNE 11.3 km/h 19.3 km/h 64 % 0 mm
00:36 21.1 °C 14.2 °C 1013.8 hPa NNE 11.3 km/h 16.1 km/h 65 % 0 mm
00:41 21 °C 13.9 °C 1013.8 hPa NNE 11.3 km/h 20.9 km/h 64 % 0 mm
00:46 20.9 °C 13.9 °C 1013.8 hPa NNE 11.3 km/h 19.3 km/h 64 % 0 mm
00:51 20.9 °C 13.9 °C 1014.1 hPa NNE 9.7 km/h 19.3 km/h 64 % 0 mm
00:56 20.9 °C 13.8 °C 1014.1 hPa NNE 11.3 km/h 20.9 km/h 64 % 0 mm
01:01 20.9 °C 13.6 °C 1014.1 hPa NNE 8.7 km/h 20.4 km/h 63 % 0 mm
01:06 20.8 °C 13.8 °C 1014.1 hPa North 9 km/h 13 km/h 64 % 0 mm
01:11 20.8 °C 13.5 °C 1014.1 hPa North 6.9 km/h 14.8 km/h 63 % 0 mm
01:16 20.8 °C 13.7 °C 1013.8 hPa NNE 10.9 km/h 18.5 km/h 64 % 0 mm
01:21 20.8 °C 13.5 °C 1013.8 hPa NNE 7.2 km/h 16.7 km/h 63 % 0 mm
01:26 20.7 °C 13.4 °C 1013.8 hPa NE 8.9 km/h 18.5 km/h 63 % 0 mm
01:31 20.7 °C 13.4 °C 1013.8 hPa North 9 km/h 14.5 km/h 63 % 0 mm
01:36 20.7 °C 13.4 °C 1013.8 hPa NNE 10 km/h 16.7 km/h 63 % 0 mm
01:41 20.7 °C 13.4 °C 1013.8 hPa NNE 9.7 km/h 16.7 km/h 63 % 0 mm
01:46 20.7 °C 13.6 °C 1013.8 hPa NE 13.2 km/h 19.3 km/h 64 % 0 mm
01:51 20.6 °C 13.3 °C 1013.8 hPa NNE 11.3 km/h 16.7 km/h 63 % 0 mm
01:56 20.6 °C 13 °C 1013.4 hPa NNE 8.4 km/h 16.1 km/h 62 % 0 mm
02:01 20.6 °C 13.3 °C 1013.4 hPa North 12.4 km/h 17.7 km/h 63 % 0 mm
02:06 20.6 °C 13 °C 1013.4 hPa NE 9.3 km/h 14.8 km/h 62 % 0 mm
02:11 20.5 °C 13.2 °C 1013.4 hPa NNE 8.9 km/h 14.8 km/h 63 % 0 mm
02:16 20.5 °C 12.9 °C 1013.4 hPa NNE 7.2 km/h 14.8 km/h 62 % 0 mm
02:21 20.5 °C 12.9 °C 1013.4 hPa NNW 10.9 km/h 17.7 km/h 62 % 0 mm
02:26 20.4 °C 12.7 °C 1013.4 hPa North 12.1 km/h 20.4 km/h 61 % 0 mm
02:31 20.4 °C 12.9 °C 1013.4 hPa NNW 12.2 km/h 18.5 km/h 62 % 0 mm
02:36 20.3 °C 12.8 °C 1013.1 hPa NNE 12.2 km/h 20.9 km/h 62 % 0 mm
02:41 20.3 °C 12.8 °C 1013.1 hPa North 13 km/h 14.8 km/h 62 % 0 mm
02:46 20.3 °C 13 °C 1013.1 hPa NNE 10.6 km/h 22.2 km/h 63 % 0 mm
02:51 20.3 °C 12.8 °C 1013.1 hPa NNE 6.9 km/h 14.8 km/h 62 % 0 mm
02:56 20.2 °C 12.9 °C 1013.1 hPa NNE 10.8 km/h 14.5 km/h 63 % 0 mm
03:01 20.2 °C 12.7 °C 1013.1 hPa NE 10 km/h 16.7 km/h 62 % 0 mm
03:07 20.1 °C 12.8 °C 1013.1 hPa NNE 10.9 km/h 18.5 km/h 63 % 0 mm
03:12 20.1 °C 12.6 °C 1013.1 hPa North 9 km/h 14.8 km/h 62 % 0 mm
03:17 20.1 °C 12.6 °C 1013.1 hPa NE 13 km/h 20.4 km/h 62 % 0 mm
03:22 20 °C 12.5 °C 1013.1 hPa North 14 km/h 18.5 km/h 62 % 0 mm
03:27 19.9 °C 12.2 °C 1013.1 hPa NNE 14.3 km/h 22.2 km/h 61 % 0 mm
03:32 19.9 °C 12.7 °C 1012.8 hPa NNE 6.6 km/h 11.1 km/h 63 % 0 mm
03:35 19.9 °C 12.7 °C 1012.8 hPa NNW 11.4 km/h 22.5 km/h 63 % 0 mm
03:40 19.9 °C 12.2 °C 1012.8 hPa North 7.9 km/h 18.5 km/h 61 % 0 mm
03:45 19.9 °C 12.4 °C 1012.8 hPa North 14.5 km/h 24.1 km/h 62 % 0 mm
03:55 19.8 °C 12.3 °C 1012.8 hPa NE 10 km/h 14.8 km/h 62 % 0 mm
04:00 19.8 °C 12.3 °C 1012.8 hPa NNW 12.4 km/h 22.2 km/h 62 % 0 mm
04:05 19.7 °C 12.5 °C 1012.8 hPa North 12.2 km/h 16.7 km/h 63 % 0 mm
04:10 19.7 °C 12.7 °C 1012.8 hPa NNE 8.5 km/h 14.5 km/h 64 % 0 mm
04:15 19.7 °C 12.7 °C 1012.8 hPa NNE 11.7 km/h 20.9 km/h 64 % 0 mm
04:20 19.7 °C 12.7 °C 1012.8 hPa NNE 9 km/h 18.5 km/h 64 % 0 mm
04:25 19.7 °C 12.7 °C 1012.8 hPa NNW 8.7 km/h 11.1 km/h 64 % 0 mm
04:30 19.6 °C 13.1 °C 1012.8 hPa North 5.5 km/h 18.5 km/h 66 % 0 mm
04:35 19.5 °C 13 °C 1012.8 hPa North 7.4 km/h 14.8 km/h 66 % 0 mm
04:40 19.4 °C 12.6 °C 1012.8 hPa NNE 11.4 km/h 18.5 km/h 65 % 0 mm
04:45 19.3 °C 12.3 °C 1013.1 hPa NE 12.4 km/h 16.7 km/h 64 % 0 mm
04:50 19.3 °C 12.6 °C 1012.8 hPa NNE 9.5 km/h 13 km/h 65 % 0 mm
04:55 19.3 °C 12.6 °C 1012.8 hPa NNW 13.7 km/h 18.5 km/h 65 % 0 mm
05:01 19.3 °C 12.3 °C 1013.1 hPa NNE 11.6 km/h 20.4 km/h 64 % 0 mm
05:06 19.3 °C 12.6 °C 1013.1 hPa NNE 11.3 km/h 20.9 km/h 65 % 0 mm
05:11 19.3 °C 12.6 °C 1013.1 hPa NNE 9.7 km/h 20.9 km/h 65 % 0 mm
05:16 19.3 °C 12.6 °C 1013.1 hPa NNE 9.7 km/h 22.5 km/h 65 % 0 mm
05:21 19.3 °C 12.6 °C 1013.1 hPa North 11.3 km/h 19.3 km/h 65 % 0 mm
05:26 19.3 °C 12.6 °C 1013.1 hPa North 8 km/h 19.3 km/h 65 % 0 mm
05:31 19.3 °C 12.6 °C 1013.1 hPa North 8.4 km/h 16.7 km/h 65 % 0 mm
05:36 19.2 °C 12.5 °C 1013.1 hPa North 4.8 km/h 14.5 km/h 65 % 0 mm
05:41 19.2 °C 12.7 °C 1013.1 hPa North 8 km/h 19.3 km/h 66 % 0 mm
05:46 19.2 °C 12.4 °C 1013.1 hPa North 9.7 km/h 19.3 km/h 65 % 0 mm
05:51 19.2 °C 12.4 °C 1013.1 hPa North 9.7 km/h 19.3 km/h 65 % 0 mm
05:56 19.2 °C 12.4 °C 1013.1 hPa North 11.3 km/h 19.3 km/h 65 % 0 mm
06:01 19.1 °C 12.1 °C 1013.1 hPa NNE 10.9 km/h 16.7 km/h 64 % 0 mm
06:06 19.1 °C 12.4 °C 1013.1 hPa NNE 7.4 km/h 13 km/h 65 % 0 mm
06:11 19.1 °C 12.3 °C 1013.1 hPa North 9.7 km/h 16.1 km/h 65 % 0 mm
06:16 19.1 °C 12.3 °C 1013.1 hPa North 9.7 km/h 16.1 km/h 65 % 0 mm
06:21 19 °C 12.3 °C 1013.1 hPa North 9.7 km/h 12.9 km/h 65 % 0 mm
06:26 18.9 °C 12.2 °C 1013.4 hPa NNE 8 km/h 14.8 km/h 65 % 0 mm
06:31 18.9 °C 12.2 °C 1013.4 hPa NNE 10.3 km/h 16.7 km/h 65 % 0 mm
06:36 18.9 °C 12.2 °C 1013.4 hPa North 6.8 km/h 13 km/h 65 % 0 mm
06:41 18.9 °C 12.2 °C 1013.4 hPa North 11.3 km/h 18.5 km/h 65 % 0 mm
06:47 18.9 °C 12.4 °C 1013.4 hPa North 7.2 km/h 18.5 km/h 66 % 0 mm
06:52 18.8 °C 12.1 °C 1013.4 hPa NNE 8.9 km/h 16.7 km/h 65 % 0 mm
06:57 18.8 °C 12.1 °C 1013.4 hPa North 12.1 km/h 19.3 km/h 65 % 0 mm
07:02 18.8 °C 12.1 °C 1013.4 hPa NNW 7.9 km/h 14.8 km/h 65 % 0 mm
07:07 18.8 °C 11.9 °C 1013.8 hPa North 12.1 km/h 18.5 km/h 64 % 0 mm
07:12 18.8 °C 12.1 °C 1013.8 hPa NNE 12.4 km/h 20.4 km/h 65 % 0 mm
07:17 18.8 °C 11.9 °C 1013.8 hPa NNE 11.9 km/h 16.7 km/h 64 % 0 mm
07:22 18.8 °C 12.1 °C 1013.8 hPa NNE 13.7 km/h 18.5 km/h 65 % 0 mm
07:27 18.8 °C 12.1 °C 1013.4 hPa North 6.6 km/h 13 km/h 65 % 0 mm
07:32 18.9 °C 12.2 °C 1013.4 hPa NE 12.9 km/h 22.2 km/h 65 % 0 mm
07:37 18.9 °C 12.4 °C 1013.4 hPa NNW 8.4 km/h 14.8 km/h 66 % 0 mm
07:42 18.8 °C 11.9 °C 1013.4 hPa NNW 13.4 km/h 20.4 km/h 64 % 0 mm
07:47 18.8 °C 12.3 °C 1013.4 hPa NNE 10.1 km/h 13 km/h 66 % 0 mm
07:52 18.8 °C 11.8 °C 1013.4 hPa North 8.4 km/h 16.7 km/h 64 % 0 mm
07:57 18.8 °C 12.1 °C 1013.4 hPa North 6.9 km/h 13 km/h 65 % 0 mm
08:02 18.7 °C 12.2 °C 1013.4 hPa North 7.9 km/h 16.7 km/h 66 % 0 mm
08:07 18.7 °C 12 °C 1013.4 hPa North 6.9 km/h 14.8 km/h 65 % 0 mm
08:13 18.8 °C 12.1 °C 1013.4 hPa North 7.7 km/h 13 km/h 65 % 0 mm
08:18 18.8 °C 12.3 °C 1013.8 hPa NNE 5.6 km/h 14.8 km/h 66 % 0 mm
08:23 18.8 °C 12.6 °C 1013.4 hPa East 7.9 km/h 11.3 km/h 67 % 0 mm
08:28 18.9 °C 12.6 °C 1013.4 hPa North 8 km/h 14.8 km/h 67 % 0 mm
08:33 19 °C 12.5 °C 1013.4 hPa North 10.6 km/h 18.5 km/h 66 % 0 mm
08:38 19.1 °C 12.6 °C 1013.4 hPa North 10.8 km/h 16.7 km/h 66 % 0 mm
08:43 19.2 °C 12.7 °C 1013.4 hPa North 6.3 km/h 13 km/h 66 % 0 mm
08:48 19.3 °C 12.8 °C 1013.4 hPa North 8.5 km/h 14.8 km/h 66 % 0 mm
08:53 19.4 °C 12.6 °C 1013.8 hPa NNE 6.3 km/h 11.3 km/h 65 % 0 mm
08:58 19.4 °C 12.9 °C 1013.4 hPa North 5.8 km/h 9.3 km/h 66 % 0 mm
09:03 19.4 °C 12.7 °C 1013.4 hPa NNE 11.1 km/h 16.7 km/h 65 % 0 mm
09:08 19.5 °C 12.7 °C 1013.4 hPa North 14.2 km/h 20.4 km/h 65 % 0 mm
09:13 19.5 °C 12.7 °C 1013.4 hPa NE 8.4 km/h 14.8 km/h 65 % 0 mm
09:18 19.6 °C 13.1 °C 1013.4 hPa NNW 9.2 km/h 14.8 km/h 66 % 0 mm
09:23 19.7 °C 13.1 °C 1013.4 hPa NNE 12.6 km/h 19.3 km/h 66 % 0 mm
09:28 19.8 °C 13 °C 1013.4 hPa North 9.3 km/h 13 km/h 65 % 0 mm
09:33 19.9 °C 13.3 °C 1013.4 hPa NNE 7.7 km/h 14.8 km/h 66 % 0 mm
09:38 20.1 °C 13.1 °C 1013.4 hPa NNW 8.9 km/h 14.8 km/h 64 % 0 mm
09:43 20.2 °C 13.1 °C 1013.4 hPa NE 11.3 km/h 16.7 km/h 64 % 0 mm
09:48 20.3 °C 13.2 °C 1013.4 hPa North 9.7 km/h 16.7 km/h 64 % 0 mm
09:53 20.4 °C 13.3 °C 1013.4 hPa North 11.4 km/h 14.8 km/h 64 % 0 mm
09:58 20.5 °C 13.2 °C 1013.4 hPa NE 9.2 km/h 18.5 km/h 63 % 0 mm
10:04 20.6 °C 13.3 °C 1013.4 hPa NNW 10.3 km/h 13 km/h 63 % 0 mm
10:09 20.7 °C 13.1 °C 1013.4 hPa NNE 9 km/h 20.4 km/h 62 % 0 mm
10:14 20.7 °C 13.4 °C 1013.4 hPa NNE 5.5 km/h 18.5 km/h 63 % 0 mm
10:19 20.8 °C 13.9 °C 1013.4 hPa North 11.7 km/h 16.7 km/h 65 % 0 mm
10:24 20.9 °C 13.8 °C 1013.4 hPa North 9 km/h 14.8 km/h 64 % 0 mm
10:29 21.1 °C 13.7 °C 1013.4 hPa NE 10.6 km/h 18.5 km/h 63 % 0 mm
10:34 21.2 °C 14.1 °C 1013.4 hPa North 8.9 km/h 19.3 km/h 64 % 0 mm
10:39 21.5 °C 14.2 °C 1013.1 hPa North 11.6 km/h 22.2 km/h 63 % 0 mm
10:44 21.8 °C 14.2 °C 1013.1 hPa NNE 12.6 km/h 18.5 km/h 62 % 0 mm
10:49 21.9 °C 14.3 °C 1013.1 hPa North 10.8 km/h 16.7 km/h 62 % 0 mm
10:54 22 °C 14.1 °C 1013.1 hPa North 7.4 km/h 13 km/h 61 % 0 mm
10:59 22.1 °C 14.2 °C 1013.1 hPa North 8.7 km/h 14.8 km/h 61 % 0 mm
11:04 22.3 °C 14.4 °C 1013.1 hPa North 10.6 km/h 18.5 km/h 61 % 0 mm
11:09 22.6 °C 15.2 °C 1013.1 hPa North 7.1 km/h 14.8 km/h 63 % 0 mm
11:10 22.6 °C 15.2 °C 1013.1 hPa NE 9.2 km/h 19.3 km/h 63 % 0 mm
11:15 22.9 °C 14.9 °C 1013.1 hPa NNE 10.5 km/h 14.8 km/h 61 % 0 mm
11:20 23.2 °C 15.2 °C 1013.1 hPa NNW 6.9 km/h 16.7 km/h 61 % 0 mm
11:25 23.4 °C 15.2 °C 1013.1 hPa NNE 9 km/h 13 km/h 60 % 0 mm
11:30 23.6 °C 15.8 °C 1012.8 hPa NNE 7.2 km/h 9.3 km/h 62 % 0 mm
11:35 23.9 °C 15.9 °C 1012.8 hPa North 9.2 km/h 13 km/h 61 % 0 mm
11:40 24.2 °C 16.7 °C 1012.8 hPa North 8 km/h 13 km/h 63 % 0 mm
11:45 24.8 °C 17.3 °C 1013.1 hPa North 4 km/h 11.3 km/h 63 % 0 mm
11:50 25.2 °C 17.1 °C 1013.1 hPa NNW 7.1 km/h 14.8 km/h 61 % 0 mm
11:55 25.6 °C 16.7 °C 1013.1 hPa NNW 5.6 km/h 11.3 km/h 58 % 0 mm
12:00 25.9 °C 16.8 °C 1013.1 hPa NNE 5.1 km/h 18.5 km/h 57 % 0 mm
12:05 26.3 °C 16.8 °C 1012.8 hPa NNE 4.7 km/h 9.3 km/h 56 % 0 mm
12:10 26.5 °C 17.3 °C 1012.8 hPa North 8 km/h 16.1 km/h 57 % 0 mm
12:15 26.8 °C 17.3 °C 1012.8 hPa NW 8.4 km/h 9.3 km/h 56 % 0 mm
12:20 27.1 °C 17.8 °C 1012.8 hPa NNE 4.8 km/h 11.1 km/h 57 % 0 mm
12:25 27.3 °C 17.8 °C 1012.8 hPa North 7.7 km/h 11.1 km/h 56 % 0 mm
12:30 27.7 °C 18.4 °C 1012.8 hPa NNW 3.2 km/h 9.3 km/h 57 % 0 mm
12:35 28 °C 17.8 °C 1012.8 hPa NNE 4 km/h 7.4 km/h 54 % 0 mm
12:40 28.2 °C 17.7 °C 1012.4 hPa NNE 5 km/h 7.4 km/h 53 % 0 mm
12:45 28.1 °C 17.3 °C 1012.8 hPa NNE 3.4 km/h 13 km/h 52 % 0 mm
12:50 28 °C 16.9 °C 1012.4 hPa NW 5.5 km/h 11.1 km/h 51 % 0 mm
12:55 27.9 °C 17.8 °C 1012.4 hPa North 2.7 km/h 5.6 km/h 54 % 0 mm
13:00 28.1 °C 18.8 °C 1012.1 hPa NNE 5 km/h 8 km/h 57 % 0 mm
13:05 28.2 °C 18.3 °C 1012.1 hPa NNW 4.7 km/h 7.4 km/h 55 % 0 mm
13:10 28.4 °C 18.2 °C 1012.1 hPa NW 3.5 km/h 4.8 km/h 54 % 0 mm
13:15 28.5 °C 18.6 °C 1012.1 hPa NNE 4.5 km/h 13 km/h 55 % 0 mm
13:21 28.6 °C 18.6 °C 1012.1 hPa NNE 8 km/h 12.9 km/h 55 % 0 mm
13:26 28.7 °C 19.3 °C 1012.1 hPa NNE 3.2 km/h 12.9 km/h 57 % 0 mm
13:31 28.7 °C 18.8 °C 1012.1 hPa North 4.8 km/h 14.5 km/h 55 % 0 mm
13:36 28.7 °C 19 °C 1011.7 hPa NNE 4.8 km/h 11.3 km/h 56 % 0 mm
13:41 28.7 °C 19.9 °C 1011.7 hPa NNE 8 km/h 12.9 km/h 59 % 0 mm
13:46 28.9 °C 20.1 °C 1011.7 hPa North 3.2 km/h 14.5 km/h 59 % 0 mm
13:51 29 °C 19.6 °C 1011.7 hPa North 4.8 km/h 14.5 km/h 57 % 0 mm
13:56 29.2 °C 20.1 °C 1011.7 hPa NNW 6.9 km/h 11.1 km/h 58 % 0 mm
14:01 29.2 °C 19.6 °C 1011.7 hPa NNE 8.7 km/h 14.8 km/h 56 % 0 mm
14:06 29 °C 18.8 °C 1011.7 hPa North 4.8 km/h 14.5 km/h 54 % 0 mm
14:11 28.9 °C 19.3 °C 1011.7 hPa North 1.6 km/h 12.9 km/h 56 % 0 mm
14:16 28.8 °C 19.1 °C 1011.7 hPa North 4.8 km/h 14.5 km/h 56 % 0 mm
14:21 28.5 °C 19.7 °C 1011.7 hPa NNE 8.2 km/h 17.7 km/h 59 % 0 mm
14:26 28.2 °C 19.7 °C 1011.4 hPa NNE 3.2 km/h 12.9 km/h 60 % 0 mm
14:31 28.1 °C 19.6 °C 1011.4 hPa North 9.7 km/h 14.5 km/h 60 % 0 mm
14:36 28.1 °C 19.3 °C 1011.4 hPa NE 6.3 km/h 16.1 km/h 59 % 0 mm
14:41 28.1 °C 19.8 °C 1011.4 hPa North 5.3 km/h 11.1 km/h 61 % 0 mm
14:46 28.1 °C 19.6 °C 1011.4 hPa North 7.7 km/h 13 km/h 60 % 0 mm
14:51 28.1 °C 19.6 °C 1011.4 hPa NW 3.2 km/h 6.4 km/h 60 % 0 mm
14:57 28.3 °C 19.8 °C 1011.4 hPa NNW 5 km/h 8 km/h 60 % 0 mm
15:02 28.3 °C 19.6 °C 1011.1 hPa NNE 7.4 km/h 13 km/h 59 % 0 mm
15:07 28.4 °C 19.4 °C 1011.1 hPa NNW 7.9 km/h 13 km/h 58 % 0 mm
15:12 28.4 °C 19.7 °C 1011.1 hPa NE 7.9 km/h 13 km/h 59 % 0 mm
15:17 28.4 °C 19.9 °C 1011.1 hPa North 4.7 km/h 8 km/h 60 % 0 mm
15:22 28.3 °C 19.8 °C 1011.1 hPa NNE 7.1 km/h 13 km/h 60 % 0 mm
15:27 28.2 °C 19.7 °C 1011.1 hPa North 1.8 km/h 5.6 km/h 60 % 0 mm
15:32 28 °C 20.1 °C 1011.1 hPa NNE 4 km/h 5.6 km/h 62 % 0 mm
15:37 27.8 °C 19.9 °C 1011.1 hPa NE 5.8 km/h 9.3 km/h 62 % 0 mm
15:42 27.6 °C 19.7 °C 1011.1 hPa East 7.4 km/h 13 km/h 62 % 0 mm
15:47 27.3 °C 19.9 °C 1011.1 hPa NNE 5.1 km/h 9.3 km/h 64 % 0 mm
15:52 27.1 °C 19.9 °C 1011.1 hPa North 6.8 km/h 9.7 km/h 65 % 0 mm
15:57 26.9 °C 20 °C 1011.1 hPa NNE 9.2 km/h 14.8 km/h 66 % 0 mm
16:02 26.6 °C 19.7 °C 1010.7 hPa NNE 7.4 km/h 9.3 km/h 66 % 0 mm
16:07 26.4 °C 19.6 °C 1010.7 hPa North 7.6 km/h 11.1 km/h 66 % 0 mm
16:12 26.3 °C 19.7 °C 1010.7 hPa NE 3.4 km/h 5.6 km/h 67 % 0 mm
16:17 26.2 °C 19.8 °C 1010.7 hPa NNE 9.3 km/h 13 km/h 68 % 0 mm
16:23 26.1 °C 19.7 °C 1010.7 hPa NNE 6.6 km/h 14.8 km/h 68 % 0 mm
16:28 25.9 °C 19.8 °C 1010.7 hPa NNE 9.2 km/h 12.9 km/h 69 % 0 mm
16:33 25.8 °C 19.4 °C 1010.7 hPa NNE 12.2 km/h 18.5 km/h 68 % 0 mm
16:38 25.7 °C 19.4 °C 1010.7 hPa NNE 3.5 km/h 5.6 km/h 68 % 0 mm
16:43 25.7 °C 19.6 °C 1010.7 hPa NNE 2.4 km/h 5.6 km/h 69 % 0 mm
16:48 25.6 °C 19.4 °C 1010.7 hPa NNE 2.7 km/h 9.3 km/h 69 % 0 mm
16:53 25.5 °C 19.6 °C 1010.7 hPa North 5.8 km/h 11.1 km/h 70 % 0 mm
16:58 25.4 °C 19.3 °C 1010.7 hPa NNE 9.8 km/h 14.8 km/h 69 % 0 mm
17:03 25.3 °C 19.4 °C 1010.7 hPa NNW 6.4 km/h 13 km/h 70 % 0 mm
17:08 25.3 °C 19.4 °C 1010.7 hPa NNE 6.9 km/h 14.8 km/h 70 % 0 mm
17:13 25.3 °C 19.4 °C 1010.7 hPa NNE 5.6 km/h 5.6 km/h 70 % 0 mm
17:18 25.3 °C 19.2 °C 1010.7 hPa NE 3.9 km/h 5.6 km/h 69 % 0 mm
17:23 25.2 °C 19.3 °C 1010.7 hPa NE 5.6 km/h 5.6 km/h 70 % 0 mm
17:28 25.2 °C 19.1 °C 1010.7 hPa NE 6.6 km/h 16.7 km/h 69 % 0 mm
17:33 25.2 °C 19.3 °C 1010.7 hPa NNE 8.7 km/h 14.8 km/h 70 % 0 mm
17:38 25.2 °C 19.3 °C 1011.1 hPa NNE 5.8 km/h 5.8 km/h 70 % 0 mm
17:43 25.1 °C 19.2 °C 1011.1 hPa NNE 11.9 km/h 20.4 km/h 70 % 0 mm
17:48 25 °C 18.9 °C 1011.1 hPa NE 13.7 km/h 20.4 km/h 69 % 0 mm
17:53 24.9 °C 18.9 °C 1011.1 hPa NE 8.2 km/h 22.2 km/h 69 % 0 mm
17:58 24.9 °C 18.9 °C 1011.1 hPa North 7.6 km/h 14.5 km/h 69 % 0 mm
18:03 24.9 °C 19.1 °C 1011.1 hPa East 8 km/h 13 km/h 70 % 0 mm
18:08 24.8 °C 19 °C 1011.1 hPa ENE 4.3 km/h 5.6 km/h 70 % 0 mm
18:13 24.8 °C 19.4 °C 1011.1 hPa NE 2.9 km/h 7.4 km/h 72 % 0 mm
18:18 24.7 °C 19.3 °C 1011.1 hPa North 3.5 km/h 12.9 km/h 72 % 0 mm
18:24 24.7 °C 19.3 °C 1011.1 hPa NNE 4.7 km/h 9.3 km/h 72 % 0 mm
18:29 24.6 °C 19.2 °C 1011.1 hPa North 4.5 km/h 9.3 km/h 72 % 0 mm
18:34 24.5 °C 19.3 °C 1011.1 hPa ENE 4.2 km/h 5.6 km/h 73 % 0 mm
18:39 24.4 °C 19.3 °C 1011.1 hPa NE 2.9 km/h 7.4 km/h 73 % 0 mm
18:44 24.4 °C 19.2 °C 1011.1 hPa NNE 3.9 km/h 5.6 km/h 73 % 0 mm
18:49 24.3 °C 19.4 °C 1011.1 hPa North 3.7 km/h 5.6 km/h 74 % 0 mm
18:54 24.2 °C 19.5 °C 1011.1 hPa NNE 2.6 km/h 5.6 km/h 75 % 0 mm
18:59 24.2 °C 19.7 °C 1011.1 hPa NE 2.3 km/h 7.4 km/h 76 % 0 mm
19:04 24.1 °C 19.6 °C 1011.1 hPa ENE 3.2 km/h 5.6 km/h 76 % 0 mm
19:06 24.1 °C 19.6 °C 1011.1 hPa NNE 1.8 km/h 5.6 km/h 76 % 0 mm
19:11 24 °C 19.7 °C 1011.4 hPa Calm   6.4 km/h 77 % 0 mm
19:16 23.9 °C 19.7 °C 1011.4 hPa NE 1.6 km/h 6.4 km/h 77 % 0 mm
19:21 23.8 °C 19.3 °C 1011.4 hPa ENE 5.3 km/h 5.6 km/h 76 % 0 mm
19:26 23.8 °C 19.1 °C 1011.4 hPa NNE 4.8 km/h 12.9 km/h 75 % 0 mm
19:31 23.7 °C 18.6 °C 1011.7 hPa NE 8 km/h 24.1 km/h 73 % 0 mm
19:35 23.7 °C 18.4 °C 1011.7 hPa North 6.9 km/h 11.3 km/h 72 % 0 mm
19:40 23.7 °C 18.4 °C 1011.7 hPa NE 8 km/h 14.5 km/h 72 % 0 mm
19:46 23.7 °C 18.4 °C 1011.7 hPa NE 4.8 km/h 16.1 km/h 72 % 0 mm
19:51 23.8 °C 19.1 °C 1011.7 hPa ENE 4.8 km/h 12.9 km/h 75 % 0 mm
19:55 23.7 °C 19 °C 1011.7 hPa ENE 4.8 km/h 12.9 km/h 75 % 0 mm
20:01 23.7 °C 18.9 °C 1011.7 hPa NE 4.5 km/h 5.6 km/h 75 % 0 mm
20:06 23.6 °C 18.9 °C 1011.7 hPa ENE 3.9 km/h 5.6 km/h 75 % 0 mm
20:11 23.6 °C 19.1 °C 1011.7 hPa NE 1.6 km/h 8 km/h 76 % 0 mm
20:16 23.5 °C 19 °C 1011.7 hPa NE 1.6 km/h 8 km/h 76 % 0 mm
20:20 23.4 °C 18.9 °C 1011.7 hPa NNE 4.8 km/h 9.7 km/h 76 % 0 mm
20:25 23.3 °C 18.8 °C 1011.7 hPa NNE 4.8 km/h 11.3 km/h 76 % 0 mm
20:30 23.2 °C 18.9 °C 1011.7 hPa NNE 4.8 km/h 11.3 km/h 77 % 0 mm
20:35 23.1 °C 18.8 °C 1011.7 hPa NE 7.1 km/h 11.1 km/h 77 % 0 mm
20:41 22.9 °C 18 °C 1011.7 hPa NNE 9.7 km/h 19.3 km/h 74 % 0 mm
20:46 22.8 °C 17.7 °C 1012.1 hPa NNE 9.7 km/h 19.3 km/h 73 % 0 mm
20:50 22.7 °C 17.4 °C 1012.1 hPa NE 9.7 km/h 20.9 km/h 72 % 0 mm
20:55 22.7 °C 17.6 °C 1012.1 hPa East 7.4 km/h 11.1 km/h 73 % 0 mm
21:00 22.7 °C 17.8 °C 1012.1 hPa North 4.5 km/h 11.1 km/h 74 % 0 mm
21:05 22.6 °C 17.7 °C 1012.1 hPa NNE 12.9 km/h 22.5 km/h 74 % 0 mm
21:11 22.6 °C 17.3 °C 1012.4 hPa NNE 12.9 km/h 22.5 km/h 72 % 0 mm
21:15 22.5 °C 16.8 °C 1012.1 hPa NNE 11.3 km/h 22.5 km/h 70 % 0 mm
21:21 22.4 °C 16.7 °C 1012.1 hPa NNE 14.5 km/h 24.1 km/h 70 % 0 mm
21:26 22.4 °C 16.5 °C 1012.4 hPa NNE 9.7 km/h 20.9 km/h 69 % 0 mm
21:30 22.4 °C 16.9 °C 1012.4 hPa NE 9.7 km/h 14.5 km/h 71 % 0 mm
21:35 22.4 °C 16.7 °C 1012.1 hPa NNE 8 km/h 22.5 km/h 70 % 0 mm
21:40 22.3 °C 16.8 °C 1012.4 hPa NNE 11.3 km/h 19.3 km/h 71 % 0 mm
21:45 22.3 °C 16.6 °C 1012.4 hPa NNE 9.7 km/h 20.9 km/h 70 % 0 mm
21:55 22.3 °C 17 °C 1012.1 hPa NNE 9.7 km/h 19.3 km/h 72 % 0 mm
22:01 22.2 °C 16.7 °C 1012.1 hPa NNE 12.7 km/h 18.5 km/h 71 % 0 mm
22:06 22.2 °C 16.4 °C 1012.1 hPa NE 11.1 km/h 18.5 km/h 70 % 0 mm
22:11 22.1 °C 16.6 °C 1012.4 hPa NNE 11.6 km/h 16.7 km/h 71 % 0 mm
22:16 22.1 °C 16.3 °C 1012.1 hPa NNE 6.3 km/h 14.8 km/h 70 % 0 mm
22:21 22 °C 16.5 °C 1012.1 hPa North 10.9 km/h 16.7 km/h 71 % 0 mm
22:26 22 °C 16.3 °C 1012.4 hPa NNE 8.2 km/h 16.7 km/h 70 % 0 mm
22:31 21.9 °C 16.4 °C 1012.4 hPa NE 7.7 km/h 20.4 km/h 71 % 0 mm
22:36 21.9 °C 16.4 °C 1012.4 hPa North 12.2 km/h 20.9 km/h 71 % 0 mm
22:41 21.9 °C 16.2 °C 1012.4 hPa NNE 11.4 km/h 17.7 km/h 70 % 0 mm
22:46 21.9 °C 16.4 °C 1012.4 hPa NNE 9.3 km/h 18.5 km/h 71 % 0 mm
22:51 21.8 °C 16.3 °C 1012.4 hPa NNE 13.8 km/h 18.5 km/h 71 % 0 mm
22:56 21.8 °C 16.1 °C 1012.4 hPa NNE 9.7 km/h 14.8 km/h 70 % 0 mm
23:01 21.8 °C 16.3 °C 1012.4 hPa NNE 11.1 km/h 14.8 km/h 71 % 0 mm
23:06 21.7 °C 16.2 °C 1012.4 hPa NNE 7.2 km/h 11.3 km/h 71 % 0 mm
23:11 21.7 °C 16.2 °C 1012.4 hPa NNE 9 km/h 11.1 km/h 71 % 0 mm
23:16 21.7 °C 16.2 °C 1012.4 hPa NNE 9.7 km/h 18.5 km/h 71 % 0 mm
23:21 21.6 °C 16.3 °C 1012.4 hPa NE 9.5 km/h 11.3 km/h 72 % 0 mm
23:26 21.6 °C 16.3 °C 1012.4 hPa NNE 14.6 km/h 22.5 km/h 72 % 0 mm
23:31 21.6 °C 16.3 °C 1012.4 hPa NE 13.8 km/h 18.5 km/h 72 % 0 mm
23:36 21.6 °C 16.5 °C 1012.4 hPa NNW 8.7 km/h 14.5 km/h 73 % 0 mm
23:42 21.6 °C 16.5 °C 1012.8 hPa NNE 11.3 km/h 20.4 km/h 73 % 0 mm
23:47 21.5 °C 16.4 °C 1012.8 hPa NNW 11.1 km/h 14.8 km/h 73 % 0 mm
23:52 21.5 °C 16.4 °C 1012.8 hPa North 12.6 km/h 18.5 km/h 73 % 0 mm
23:57 21.4 °C 16.3 °C 1012.4 hPa NNE 11.1 km/h 20.4 km/h 73 % 0 mm
Crab Meadow Weather
Compliments of Weather Underground - 3 mb

Script developed by  Jim McMurry - jmcmurry@mwt.net Adapted for the template by  Wim van der Kuil - Leuven-Template.eu

Clouds: Mostly Cloudy or Considerable Cloudiness indicate about 75 percent cloud coverage.